Location: ???????
(55.7027°N, 37.3832°E)
Time: 18:50:36
(UTC+00:00)

Meteor 2-21 Rocket - Pass Details

Date: 14 April 2026
Orbit: 936 x 967 km, 82.5° (Epoch: 19 May)

Event Time Altitude Azimuth Distance (km) Brightness Sun altitude
Rises 18:28:06 0° 347° (NNW) 3,622 8.5 -14.5°
Reaches altitude 10° 18:30:36 10° 347° (NNW) 2,677 7.7 -14.8°
Maximum altitude 18:36:44 89° 265° (W) 958 4.4 -15.4°
Enters shadow 18:41:38 17° 171° (S) 2,216 5.9 -15.8°
